Preview of NWS' New Version of Forecast
This preview is not operational and should not be used for support decisions.

Regional Weather Roundup (RWR)

Issued by National Weather Service (NWS)

                            
000
ASUS45 KBOU 190010
RWRCO 

WEATHER ROUNDUP FOR COLORADO
NATIONAL WEATHER SERVICE DENVER/BOULDER CO
600 PM MDT MON MAR 18 2019

NOTE: "FAIR" INDICATES FEW OR NO CLOUDS BELOW 12000 FEET WITH NO
SIGNIFICANT WEATHER AND/OR OBSTRUCTIONS TO VISIBILITY.

COZ001>005-013-030-031-190100-
...NORTHWEST COLORADO...
  
CITY           SKY/WX    TMP DP  RH WIND       PRES   REMARKS
CRAIG          PTSUNNY   36  24  62 CALM      30.19S                  
HAYDEN         FAIR      33  20  58 W5        30.20  WCI  29          
MEEKER         PTSUNNY   45  20  36 NW8       30.15R                  
RANGELY        FAIR      47  29  51 CALM      30.14F                  
RABBIT EARS PA FAIR      25  21  86 W7        30.19S WCI  17          
STEAMBOAT SPGS FAIR      34  23  62 W3        30.18S                  
WALDEN         FAIR      27  18  69 N8        30.18S WCI  18          
$$

COZ006>008-011-190100-
...WEST CENTRAL VALLEYS...
  
CITY           SKY/WX    TMP DP  RH WIND       PRES   REMARKS
GRAND JUNCTION FAIR      58  22  24 W13       30.08F                  
MONTROSE       PTSUNNY   54  25  32 W10       30.12F                  
EAGLE          FAIR      49  21  33 W10       30.13S                  
RIFLE          FAIR      56  17  21 SW17      30.09F                  
DELTA          CLOUDY    60  24  24 W12       30.09S                  
NUCLA          FAIR      55  27  33 W13       30.14S                  
$$

COZ017>023-064>068-190100-
...SOUTHWEST COLORADO...
  
CITY           SKY/WX    TMP DP  RH WIND       PRES   REMARKS
DURANGO        PTSUNNY   52  23  32 N6        30.12F                  
CORTEZ         CLOUDY    57  24  28 VRB3      30.11F                  
PAGOSA SPRINGS FAIR      49  20  32 SW6       30.16F                  
TELLURIDE      CLOUDY    41  23  48 W5        30.21F                  
WOLF CREEK PAS CLOUDY    27  18  69 S13G18    30.30S WCI  16          
$$

COZ009-010-012-014-032>034-037-058>063-190100-
...CENTRAL COLORADO...
  
CITY           SKY/WX    TMP DP  RH WIND       PRES   REMARKS
ASPEN          CLOUDY    42  21  43 NW7       30.13S                  
BUENA VISTA    FAIR      46  17  32 W15G22    30.12S                  
COPPER MTN     CLOUDY    28  18  64 NW10G24   30.22S WCI  19          
BERTHOUD PASS  FAIR      21  10  63 MISG      30.19S                  
COTTONWOOD PAS PTSUNNY   37  18  44 N7        30.16S                  
GUNNISON       FAIR      30  21  69 E5        30.18F WCI  25          
GRANBY         CLOUDY    38  24  57 N9        30.16R                  
KREMMLING      CLOUDY    36  25  64 CALM      30.16F                  
LEADVILLE      FAIR      33  11  39 W8G23     30.16S WCI  26          
MONARCH PASS   FAIR      27  16  63 W37G44    30.30S WCI   9          
SALIDA         FAIR      51  17  25 SW10      30.18F                  
SUNLIGHT       FAIR      30  19  64 SW8G18    30.24F WCI  23          
WILKERSON PASS CLOUDY    32  18  55 SW12G22   30.21S WCI  23          
$$

COZ069>075-190100-
...SAN LUIS VALLEY/SANGRE DE CRISTO MOUNTAINS...
  
CITY           SKY/WX    TMP DP  RH WIND       PRES   REMARKS
ALAMOSA        CLOUDY    51  16  24 SW15      30.11F                  
DEL NORTE      FAIR      47  21  36 W15       30.14S                  
LA VETA PASS   NOT AVBL                                               
SAGUACHE       PTSUNNY   46  21  36 CALM      30.14S                  
$$

COZ035-036-038>040-190100-
...NORTHERN COLORADO FRONT RANGE...
  
CITY           SKY/WX    TMP DP  RH WIND       PRES   REMARKS
DENVER INTL AP PTSUNNY   44  31  60 NW14      30.11R                  
AURORA         PTSUNNY   43  31  62 N13       30.12R                  
FRONT RANGE AP NOT AVBL                                               
ERIE MUNI ARPT FAIR      46  26  45 N7        30.18S                  
BOULDER MUN AP FAIR      45  27  49 N7        30.13R                  
CENTENNIAL     PTSUNNY   44  31  60 N13       30.11R                  
BROOMFIELD     PTSUNNY   45  28  53 N10       30.12S                  
FORT COLLINS   CLOUDY    47  27  45 N6        30.13S                  
LONGMONT       FAIR      49  27  42 N9        30.15R                  
$$

COZ041-046-047-076>085-087-088-190100-
...PIKES PEAK/PALMER DIVIDE AND SOUTHERN FOOTHILLS...
  
CITY           SKY/WX    TMP DP  RH WIND       PRES   REMARKS
COLO. SPRINGS  PTSUNNY   50  26  39 S10       30.08F                  
A. F. ACADEMY  CLOUDY    49  26  40 S8        30.06S                  
SCHRIEVER AFB  NOT AVBL                                               
CHEYENNE MTN   FAIR      44  26  48 S13       30.04S                  
ELLICOTT         N/A    N/A N/A N/A S13       30.06F                  
FALCON         FAIR      44  26  48 SE10      30.10S                  
FORT CARSON    PTSUNNY   53  27  37 S10       30.06F                  
LIMON          CLOUDY    48  29  47 S10       30.09F                  
MONUMENT HILL  FAIR      41  28  60 MISG      30.12R                  
CANON CITY     NOT AVBL                                               
WALSENBURG     NOT AVBL                                               
TRINIDAD       CLOUDY    58  20  22 SW16G24   30.04F                  
$$

COZ042>045-048>051-090-091-190100-
...NORTHEAST COLORADO...
  
CITY           SKY/WX    TMP DP  RH WIND       PRES   REMARKS
GREELEY ARPT   FAIR      49  27  42 N7        30.13S                  
AKRON          FAIR      50  31  48 S13       30.11S                  
BURLINGTON     FAIR      51  32  48 SE17      30.13F                  
WRAY           FAIR      50  30  46 SE13      30.15S                  
YUMA           FAIR      46  32  57 SE16      30.12F                  
STERLING       CLOUDY    52  32  46 CALM      30.11S                  
HOLYOKE        PTSUNNY   52  32  46 E9        30.16S                  
FORT MORGAN      N/A     52  27  38 CALM      30.11S                  
$$

COZ086-089-092>099-190100-
...SOUTHEAST COLORADO...
  
CITY           SKY/WX    TMP DP  RH WIND       PRES   REMARKS
PUEBLO         FAIR      60  31  33 E9        30.02F                  
LA JUNTA       FAIR      65  29  25 VRB3      30.01F                  
LAMAR          FAIR      62  29  28 SE13      30.02F                  
SPRINGFIELD    NOT AVBL                                               
$$